Wind_Speed
45 44 45 37 32 32 35 32 33 34 31 32 34 37 39 42 43 38 38 34 22 29 31 39 40 41 39 35 36 32 36 36 33 30 31 29 32 36 40 41 39 38 38
43 45 45 42 34 34 37 37 39 37 38 35 31 35 39 45 48 51 45 37 32 26 24 21 35 41 38 38 39 36 39 32 32 35 31 30 27 29 31 36 36 37 36
46 45 45 43 39 33 39 42 40 40 40 39 37 34 35 40 44 48 47 50 42 36 31 35 29 31 38 40 41 37 34 34 36 35 35 31 31 30 28 30 33 35 34
48 47 44 40 38 36 32 42 43 42 40 43 42 39 36 35 33 38 43 42 43 48 41 35 34 35 31 39 43 34 35 35 39 38 39 36 34 33 32 33 29 31 30
50 44 43 41 35 33 33 31 43 44 45 42 44 43 42 39 36 34 39 42 42 42 42 35 33 35 38 38 34 37 36 38 37 37 37 41 33 29 32 35 35 35 33
51 41 38 41 37 31 30 28 29 44 46 47 44 45 44 43 41 37 34 34 38 37 39 34 37 37 37 37 39 37 37 38 42 44 40 39 36 29 31 30 31 29 29
51 44 40 39 38 33 29 27 26 30 48 50 52 48 49 46 43 43 40 34 31 31 39 38 37 37 37 38 38 37 34 39 37 38 38 42 40 32 29 27 33 34 28
51 45 41 39 36 35 31 30 27 24 30 53 56 57 54 51 46 44 45 41 36 31 35 42 39 33 34 35 36 34 33 33 35 36 40 42 40 35 36 36 31 31 32
51 43 40 39 38 36 34 32 31 28 26 30 56 59 60 57 52 48 45 46 43 35 32 38 39 40 35 36 36 35 34 36 34 33 32 34 40 40 34 32 31 30 26
47 43 41 40 40 38 37 36 33 31 29 29 37 60 60 62 58 54 50 47 44 45 44 38 40 41 42 37 35 32 32 31 32 31 29 29 31 34 35 32 29 30 27
44 42 43 42 42 40 39 38 38 31 30 29 31 48 62 59 61 58 55 51 46 45 43 45 43 43 41 38 35 35 33 34 32 30 30 29 26 27 28 28 28 25 25
44 43 44 44 43 41 41 38 40 28 26 28 31 33 57 59 56 58 57 54 50 48 41 41 44 47 45 43 39 36 36 34 33 33 32 29 28 29 27 27 28 28 26
48 45 42 44 44 41 43 42 32 20 23 25 28 29 42 57 54 51 53 55 52 49 47 44 44 42 44 45 44 41 36 37 33 32 29 28 28 27 25 26 25 28 27
50 46 42 44 44 41 42 40 22 17 22 24 24 26 26 49 51 50 47 49 51 50 49 49 47 44 42 44 45 45 40 36 36 35 32 29 28 27 26 27 26 26 26
51 49 42 41 42 39 41 36 26 21 23 24 24 21 17 36 48 47 46 46 46 47 48 49 49 47 46 45 44 44 44 41 38 37 36 33 29 28 28 27 30 28 28
46 49 46 39 40 40 41 39 31 24 24 24 23 20 15 18 40 46 46 46 46 46 45 46 48 48 47 46 45 44 45 44 42 40 38 38 34 31 29 28 28 28 25
44 45 47 44 38 39 37 37 37 31 24 22 22 19 16 11 16 40 47 47 47 47 46 47 48 48 48 48 47 46 45 47 45 43 40 39 37 34 32 29 28 29 28
41 42 43 45 42 37 37 36 34 33 31 32 22 17 17 14 13 15 32 48 50 49 49 49 49 49 49 48 48 48 47 45 46 43 41 40 38 36 34 30 28 30 28
40 41 42 43 43 41 35 35 34 34 32 32 29 19 16 17 16 16 18 24 42 54 53 52 52 51 51 51 50 49 48 47 47 45 45 41 40 39 35 32 29 28 30
39 40 41 41 43 44 40 33 34 33 34 31 28 20 18 19 19 18 20 22 27 34 52 59 57 56 55 53 53 51 50 50 48 46 47 44 42 40 39 35 32 29 27
39 39 40 41 42 43 44 39 32 32 31 31 28 20 18 20 22 22 22 25 28 31 38 43 60 63 61 59 56 56 54 52 50 48 47 47 45 43 43 40 35 33 28
40 39 40 40 41 42 43 43 37 32 30 30 27 25 22 22 22 24 25 25 27 32 37 43 49 55 67 66 63 60 58 56 54 52 49 48 48 45 43 41 39 35 33
40 40 39 39 40 41 43 44 42 36 32 29 28 26 24 25 25 26 28 27 29 33 38 44 51 54 57 67 70 66 64 62 58 55 52 50 49 47 44 43 41 40 37
39 40 40 39 41 41 42 43 44 42 35 31 28 28 27 26 27 29 31 32 34 35 33 37 45 53 57 59 65 73 69 66 63 59 56 54 51 49 45 44 42 42 39
39 39 40 40 40 40 41 43 43 44 40 35 31 29 29 30 30 31 33 35 36 31 27 28 35 43 52 60 59 66 73 70 68 63 60 57 54 51 49 44 43 41 41
41 41 40 40 41 40 40 41 42 43 43 38 35 33 32 32 32 33 33 35 33 26 24 22 30 36 43 54 61 59 67 72 71 67 63 60 57 54 51 48 44 42 41
Wind_Direction
337 336 336 326 291 268 256 261 258 253 250 237 234 228 229 231 230 217 224 229 220 237 247 235 231 232 233 239 242 233 231 237 237 237 238 232 236 237 240 243 244 249 255
336 331 332 329 312 276 258 255 255 256 249 249 244 236 233 229 232 230 232 225 218 216 226 232 232 232 235 233 234 224 230 228 233 228 234 233 232 234 234 238 243 245 249
336 331 328 327 326 308 267 254 254 253 248 248 245 242 239 233 233 234 239 234 232 230 228 228 230 231 228 230 223 216 225 226 228 231 232 231 236 239 240 241 243 244 245
334 332 329 325 322 322 306 261 254 249 249 248 248 244 241 242 241 239 238 235 234 234 236 232 231 225 233 237 225 215 221 220 225 228 232 235 235 238 243 246 244 243 241
334 332 331 328 318 320 321 299 258 253 245 245 246 247 243 244 238 237 239 239 230 229 233 241 234 231 229 233 235 241 246 235 227 231 236 240 242 247 247 243 244 249 251
336 330 331 335 324 314 318 321 287 256 250 244 245 245 245 243 242 236 236 237 237 235 233 232 234 234 233 232 234 234 240 235 240 246 243 238 238 248 250 252 249 247 248
334 330 325 328 332 319 314 316 314 276 252 249 243 243 243 243 244 239 236 235 232 229 220 230 237 234 234 234 238 238 242 235 241 243 243 242 238 240 250 259 260 258 261
332 329 326 326 327 331 316 308 312 298 272 250 248 243 242 241 239 242 237 233 233 228 220 221 222 225 226 232 233 229 236 242 242 249 245 243 243 249 250 255 262 268 268
332 329 326 328 327 322 328 317 302 306 292 270 245 246 241 239 238 238 238 236 231 224 222 220 222 222 216 222 228 227 225 232 237 245 246 243 244 242 247 254 255 262 266
333 330 329 329 326 325 322 320 317 298 299 296 261 239 241 239 237 236 236 234 238 236 232 225 223 224 225 217 213 218 219 222 231 235 243 244 242 243 248 250 254 261 265
331 330 332 329 326 324 322 321 321 304 303 296 296 244 234 236 237 234 235 236 235 239 232 234 225 225 224 220 219 220 224 222 220 226 234 235 237 242 245 247 253 256 262
331 328 331 333 333 329 325 324 321 303 305 303 306 274 229 229 232 233 233 235 237 237 235 235 236 232 229 229 224 219 219 225 222 221 224 231 239 243 245 248 252 254 257
337 333 332 333 336 335 333 331 321 306 318 318 314 298 235 222 226 229 230 232 237 239 237 237 232 234 233 234 236 233 227 219 222 223 224 227 233 236 238 244 247 254 254
346 341 336 335 339 338 339 341 334 322 332 335 325 322 249 223 222 225 226 230 233 236 237 239 241 236 235 237 238 239 238 230 225 227 227 226 231 232 233 235 233 238 248
346 348 342 338 340 338 341 344 342 329 331 339 344 331 291 230 224 226 227 229 229 230 231 236 239 237 237 236 237 237 235 232 229 228 228 227 226 230 229 230 227 224 229
343 348 349 341 341 341 342 338 338 338 325 325 332 342 327 258 231 229 230 230 230 230 229 231 233 232 231 231 234 233 231 229 225 223 223 225 224 224 227 224 224 213 218
341 345 352 350 342 342 341 340 337 328 329 328 312 316 327 301 258 235 233 233 232 231 231 231 231 230 228 226 225 228 228 226 224 220 219 221 220 219 222 225 222 217 215
337 343 347 352 351 342 340 340 336 333 325 327 319 292 298 309 286 260 241 238 236 234 232 232 232 230 228 226 224 223 224 223 225 225 221 218 217 217 217 219 217 215 209
336 339 343 348 353 351 342 339 337 335 330 327 320 301 279 288 293 275 261 250 240 238 235 233 232 233 230 227 225 224 222 222 221 220 222 220 217 216 215 211 211 207 203
332 337 340 344 348 353 350 341 338 334 335 328 326 305 296 292 292 283 277 267 253 244 238 234 232 231 231 227 224 223 222 220 219 218 218 218 219 216 214 210 205 201 199
332 334 337 340 345 349 353 349 341 336 332 332 330 314 296 300 298 296 288 279 267 254 246 238 234 231 229 228 223 222 221 219 218 216 215 212 215 216 213 213 203 200 195
329 332 333 337 340 346 350 352 348 341 331 331 330 323 306 302 301 300 300 292 275 264 255 246 237 232 229 226 224 221 220 218 215 214 213 212 210 212 212 212 205 200 195
326 330 330 332 335 341 345 350 352 345 339 328 327 327 316 309 307 306 307 302 292 279 264 251 243 233 228 225 222 220 218 217 215 213 212 211 211 209 209 209 208 202 198
319 325 328 328 330 335 339 344 349 349 341 334 323 323 323 316 311 313 312 311 305 296 275 253 241 232 225 223 221 218 216 214 213 211 210 209 209 210 208 207 206 204 199
312 318 323 326 326 330 334 338 343 347 346 338 328 318 320 320 316 316 316 315 311 302 278 254 241 233 223 219 219 217 214 211 210 208 208 208 207 208 208 207 205 203 199
307 311 318 322 322 325 330 333 338 342 344 341 333 324 316 319 318 318 316 315 312 298 270 256 242 235 225 219 215 214 212 209 207 206 205 205 205 205 206 205 204 203 199
Height
5539 5533 5526 5519 5517 5515 5516 5516 5518 5519 5521 5524 5527 5532 5538 5544 5551 5555 5560 5566 5571 5575 5578 5581 5587 5592 5597 5602 5608 5610 5614 5618 5621 5625 5628 5631 5634 5637 5640 5644 5647 5650 5652
5535 5528 5521 5514 5509 5506 5506 5507 5508 5510 5512 5514 5518 5522 5526 5531 5537 5543 5549 5556 5561 5565 5570 5573 5577 5582 5587 5592 5598 5601 5607 5609 5614 5617 5621 5624 5625 5629 5630 5634 5638 5640 5643
5529 5522 5514 5507 5502 5498 5496 5496 5498 5501 5503 5505 5508 5512 5517 5520 5525 5531 5537 5544 5552 5555 5560 5564 5570 5574 5578 5584 5589 5593 5597 5600 5604 5608 5613 5616 5618 5622 5624 5627 5629 5632 5635
5522 5514 5507 5500 5495 5490 5486 5485 5487 5490 5493 5496 5498 5501 5506 5510 5514 5520 5526 5533 5540 5545 5550 5555 5560 5565 5571 5576 5580 5585 5589 5591 5595 5599 5605 5608 5611 5615 5616 5620 5622 5624 5627
5516 5508 5500 5494 5488 5483 5478 5474 5475 5479 5483 5486 5489 5492 5495 5500 5505 5510 5515 5521 5528 5535 5541 5545 5551 5556 5561 5566 5571 5575 5580 5583 5588 5592 5597 5600 5604 5606 5608 5611 5614 5617 5619
5509 5502 5495 5488 5481 5476 5472 5468 5464 5466 5470 5475 5479 5481 5484 5489 5495 5501 5506 5511 5516 5523 5531 5537 5542 5546 5551 5557 5562 5565 5570 5574 5579 5583 5589 5594 5596 5599 5601 5603 5606 5609 5612
5503 5495 5488 5482 5475 5469 5465 5462 5459 5456 5458 5461 5466 5470 5474 5478 5484 5490 5496 5502 5508 5514 5521 5528 5533 5537 5541 5547 5552 5556 5560 5565 5570 5575 5580 5585 5589 5593 5596 5597 5598 5601 5604
5495 5487 5481 5475 5469 5463 5457 5454 5451 5449 5447 5449 5451 5456 5461 5467 5472 5479 5485 5491 5498 5504 5511 5518 5523 5529 5532 5537 5543 5547 5552 5558 5563 5569 5574 5579 5582 5586 5589 5591 5593 5595 5597
5488 5480 5474 5468 5461 5456 5450 5445 5442 5439 5436 5434 5436 5440 5447 5453 5460 5466 5473 5479 5487 5494 5501 5507 5513 5520 5525 5530 5535 5538 5542 5549 5555 5561 5565 5570 5576 5580 5583 5586 5588 5590 5592
5481 5473 5466 5460 5454 5447 5442 5437 5431 5428 5424 5421 5419 5422 5429 5437 5445 5453 5460 5467 5474 5482 5490 5496 5502 5509 5515 5521 5526 5531 5535 5541 5547 5553 5558 5562 5566 5571 5577 5580 5582 5585 5587
5474 5467 5460 5452 5445 5438 5432 5427 5421 5416 5413 5409 5405 5404 5411 5420 5428 5439 5447 5455 5463 5471 5478 5485 5491 5498 5504 5511 5517 5522 5528 5533 5539 5545 5552 5556 5559 5564 5568 5572 5576 5580 5582
5467 5460 5453 5445 5437 5430 5423 5417 5410 5404 5402 5397 5392 5386 5391 5402 5413 5423 5434 5443 5451 5459 5467 5474 5481 5487 5494 5501 5508 5514 5520 5526 5532 5538 5544 5549 5553 5557 5561 5566 5570 5574 5577
5461 5453 5445 5438 5430 5422 5415 5407 5398 5396 5393 5388 5382 5374 5375 5385 5398 5410 5420 5430 5439 5447 5455 5462 5470 5477 5484 5491 5497 5504 5510 5517 5524 5530 5536 5541 5547 5551 5553 5558 5562 5568 5572
5457 5447 5439 5431 5423 5416 5409 5401 5393 5391 5388 5383 5377 5370 5367 5376 5386 5398 5407 5417 5427 5435 5443 5451 5459 5467 5474 5481 5487 5493 5501 5508 5515 5522 5528 5534 5539 5544 5548 5552 5556 5561 5565
5455 5445 5435 5427 5419 5412 5405 5400 5393 5389 5385 5381 5376 5370 5366 5370 5379 5389 5399 5407 5416 5424 5432 5439 5445 5453 5463 5470 5477 5483 5491 5499 5506 5513 5519 5526 5531 5536 5541 5546 5550 5554 5558
5452 5443 5432 5424 5416 5408 5401 5394 5391 5387 5382 5379 5376 5372 5369 5367 5373 5382 5390 5398 5405 5413 5421 5426 5432 5440 5450 5458 5466 5472 5479 5488 5496 5504 5510 5517 5523 5528 5534 5539 5544 5547 5552
5449 5441 5431 5422 5414 5406 5400 5393 5386 5380 5379 5376 5373 5371 5369 5368 5368 5373 5380 5387 5394 5402 5409 5414 5421 5429 5437 5446 5454 5461 5469 5477 5486 5493 5500 5508 5514 5521 5527 5532 5535 5540 5545
5445 5438 5430 5421 5412 5404 5397 5391 5385 5379 5373 5368 5368 5366 5366 5366 5366 5367 5370 5376 5382 5389 5396 5403 5409 5416 5424 5433 5441 5449 5458 5465 5474 5482 5491 5499 5505 5513 5519 5524 5529 5535 5539
5440 5433 5426 5418 5410 5402 5394 5387 5381 5376 5371 5366 5361 5359 5360 5361 5361 5362 5363 5365 5369 5375 5383 5390 5397 5403 5412 5420 5429 5437 5446 5455 5463 5472 5481 5489 5496 5504 5510 5516 5523 5528 5533
5435 5429 5422 5415 5407 5399 5391 5384 5378 5371 5366 5362 5358 5355 5353 5354 5355 5356 5356 5358 5359 5361 5367 5374 5382 5389 5397 5407 5417 5426 5434 5443 5451 5460 5470 5478 5487 5494 5503 5510 5517 5523 5528
5429 5423 5417 5410 5403 5395 5388 5381 5374 5367 5362 5357 5353 5351 5350 5349 5347 5347 5348 5348 5348 5350 5352 5356 5364 5372 5382 5392 5402 5412 5421 5430 5440 5449 5459 5467 5477 5486 5494 5503 5510 5516 5522
5423 5417 5411 5405 5398 5391 5384 5377 5370 5363 5357 5353 5349 5345 5343 5342 5340 5339 5337 5337 5337 5336 5338 5341 5345 5352 5362 5373 5385 5396 5406 5417 5427 5438 5448 5457 5467 5476 5486 5495 5502 5509 5517
5416 5411 5405 5399 5393 5387 5380 5373 5366 5359 5353 5347 5343 5340 5336 5334 5331 5329 5326 5324 5323 5321 5321 5322 5325 5332 5340 5352 5365 5378 5390 5401 5414 5426 5436 5447 5457 5467 5476 5485 5495 5502 5510
5409 5404 5398 5392 5386 5381 5374 5368 5361 5354 5347 5341 5336 5332 5329 5326 5323 5319 5315 5311 5307 5302 5300 5301 5304 5311 5321 5332 5344 5358 5372 5386 5399 5412 5424 5435 5446 5457 5467 5476 5486 5495 5503
5401 5396 5391 5385 5380 5375 5369 5361 5355 5348 5341 5335 5329 5324 5320 5316 5312 5308 5303 5298 5292 5288 5285 5286 5288 5294 5303 5313 5326 5338 5354 5369 5384 5398 5411 5424 5436 5447 5457 5468 5477 5487 5496
5391 5387 5383 5377 5372 5367 5362 5355 5348 5341 5335 5328 5322 5316 5311 5306 5302 5297 5292 5287 5281 5277 5276 5276 5278 5283 5289 5298 5309 5321 5336 5353 5369 5384 5398 5412 5424 5436 5447 5459 5469 5479 5488